CUTE-1 (CO-55)

Last updated on Mon Sep 07 2026 00:03:13 GMT+0000 (Coordinated Universal Time)

1 27844U 03031E 26249.45328678 .00000164 00000+0 89813-4 0 9991 2 27844 98.6771 257.0026 0008681 315.1002 44.9474 14.24377286203249
UTC large
Height (km)
Speed (km/s)
/
Latitude / Longitude
Inclination (degrees)
Orbital Period (minutes)
Azimuth
Elevation
Range (km)
Doppler Factor

Next 0 passes for location: London (51.5072 / 0.1276)

No passes found over London.
CUTE-1 (CO-55)